Theta_e
291 292 291 289 289 290 289 290 284 287 287 292 295 293 293 293 292 291 290 290 290 290 291 294 295 295 294 293 292 292 292 292 292 293 291 291 291 290 291 288 290 289 288 285
286 290 289 286 290 290 291 291 290 291 290 297 297 294 292 292 292 290 290 291 292 293 293 294 295 295 294 292 291 291 291 292 293 291 292 291 291 291 290 288 289 289 288 286
282 288 286 280 285 290 291 293 292 285 291 294 291 291 290 290 291 291 292 292 292 292 292 292 292 294 291 291 291 290 291 293 294 293 293 293 292 291 288 288 287 288 287 287
279 284 270 284 294 294 290 290 291 292 293 294 294 295 292 293 291 291 292 293 292 292 292 293 293 292 291 291 290 290 291 293 294 293 293 293 291 289 287 288 287 287 288 288
277 275 280 285 292 293 289 288 292 293 293 296 295 292 291 294 296 295 295 297 295 295 295 294 295 294 291 290 290 290 291 293 294 293 292 292 291 289 289 287 287 286 285 285
280 278 270 284 292 297 294 284 297 296 293 294 293 283 286 295 296 295 296 296 295 295 294 293 294 295 295 292 290 288 291 291 293 293 292 291 289 290 289 287 286 285 284 286
275 277 281 294 295 298 282 286 297 297 294 291 288 289 294 295 294 295 295 295 295 294 293 294 295 295 293 293 292 291 290 291 292 292 290 292 290 291 289 287 286 285 285 286
280 277 274 297 296 288 294 297 297 295 295 294 295 294 294 294 293 294 293 293 294 292 292 294 294 293 293 292 294 292 289 289 291 291 290 291 291 290 289 287 285 285 285 285
285 283 295 297 298 301 299 295 295 297 297 295 294 293 293 293 293 293 292 291 292 291 290 291 293 293 292 293 294 290 288 288 290 290 290 290 289 289 288 287 285 284 284 284
288 295 297 299 300 298 297 297 298 297 296 295 293 293 293 292 292 291 291 291 292 291 289 289 291 292 293 293 293 290 289 289 289 289 288 289 289 288 287 285 284 284 284 283
289 295 298 298 298 298 298 297 296 296 295 294 293 292 293 292 292 291 290 290 289 289 288 289 290 290 292 293 292 290 289 290 288 288 287 287 287 287 286 286 284 283 283 284
286 294 296 295 299 299 296 294 294 294 293 294 294 293 293 292 291 290 288 288 287 287 288 288 289 289 291 292 293 290 287 287 288 288 288 287 287 286 288 286 286 286 286 284
296 300 299 299 299 296 294 294 295 295 296 294 294 293 292 291 290 290 289 288 286 286 286 288 288 288 290 291 292 291 289 288 287 287 287 286 286 286 284 287 288 287 286 286
302 301 298 297 292 295 296 296 298 296 295 293 292 292 292 290 290 289 288 288 288 287 286 288 288 288 290 291 290 290 289 287 288 287 287 286 286 285 285 284 284 284 286 286
301 301 298 295 294 295 296 296 294 292 292 292 292 291 290 289 288 288 289 289 288 287 286 288 286 287 289 289 289 288 288 287 288 287 287 286 286 286 285 285 284 284 285 285
301 300 296 293 294 295 294 293 291 291 291 291 291 291 290 290 289 288 289 288 286 284 285 285 285 287 289 288 288 288 287 285 286 286 285 285 285 285 284 284 284 283 283 283
296 292 293 294 294 293 292 292 291 290 290 290 290 291 290 288 287 287 288 288 287 286 286 285 286 288 288 288 288 286 286 286 284 284 284 283 284 283 283 283 283 283 283 284
300 296 296 295 293 291 290 291 291 290 289 290 290 289 288 287 286 286 287 287 287 286 286 286 288 288 288 288 287 287 285 285 284 283 283 283 283 283 283 282 282 282 282 283
297 296 296 295 294 292 292 291 291 291 292 291 289 287 287 287 287 287 288 286 284 283 284 287 285 287 288 286 286 286 285 284 284 283 283 283 283 282 282 282 281 281 282 282
297 297 295 294 294 293 291 291 291 291 292 292 291 288 286 284 287 288 288 284 283 282 285 286 287 287 287 287 286 286 285 284 284 283 283 282 282 282 282 282 282 282 282 282
296 294 293 292 292 291 291 291 291 290 290 290 289 287 287 287 287 287 286 283 284 283 285 286 287 287 287 287 287 286 286 285 284 283 283 282 282 282 282 282 282 282 282 282
295 293 292 292 291 289 289 290 290 290 288 286 282 284 286 288 287 287 287 284 284 279 286 287 288 286 287 286 288 287 286 285 285 284 283 283 283 282 282 282 282 282 282 282
294 293 292 291 290 289 290 291 291 291 290 288 288 289 289 288 287 285 284 285 285 282 285 288 287 283 282 286 286 285 284 283 282 281 283 282 283 283 282 282 282 282 282 282
293 293 292 292 291 290 290 291 291 291 291 291 291 290 290 288 286 287 286 282 280 280 284 284 283 280 282 285 284 284 283 283 282 280 282 279 283 283 283 282 282 283 283 283
293 293 292 291 290 290 290 290 290 290 290 289 289 290 290 289 287 287 287 286 281 283 287 282 280 280 285 284 284 283 283 283 283 280 281 281 282 282 283 283 282 282 282 282
293 293 292 292 291 291 291 290 289 288 288 287 288 289 289 289 289 289 289 286 288 284 287 286 283 282 285 285 284 283 283 283 283 283 281 281 281 281 280 282 282 282 282 282
294 291 292 290 291 291 291 290 289 289 289 289 288 289 289 288 288 287 285 288 287 286 285 285 286 285 286 285 284 284 284 283 281 282 282 281 281 277 279 282 282 282 282 281
Wind_Speed
8 9 12 6 7 7 4 5 3 4 7 7 6 8 8 7 6 6 6 5 4 2 3 5 4 4 3 1 4 5 6 6 6 5 6 4 5 6 7 6 10 11 10 8
5 7 10 7 10 7 8 12 10 10 8 0 7 9 8 7 5 6 3 3 5 5 6 3 5 5 3 1 4 5 6 6 6 6 6 6 5 8 7 7 11 10 10 9
1 1 2 7 4 5 4 5 6 5 1 9 8 7 4 4 4 2 4 5 6 6 6 5 5 5 2 2 3 6 5 6 7 7 8 6 5 8 8 8 10 9 10 8
2 4 4 8 3 1 6 5 6 6 5 7 6 5 4 4 0 8 10 9 8 8 8 8 7 6 5 2 5 6 7 10 7 7 8 7 5 7 7 7 8 9 9 9
5 1 4 6 1 4 5 5 3 4 5 7 5 2 8 10 10 10 9 10 10 8 8 9 11 9 2 5 5 7 10 9 8 7 8 8 9 6 6 8 9 9 9 9
2 2 4 7 1 5 6 1 3 2 2 5 1 5 2 7 10 12 12 10 9 10 8 10 10 9 7 5 5 7 8 9 8 8 8 7 9 8 4 7 9 7 8 8
2 2 6 4 3 4 3 4 5 3 4 8 6 4 6 7 10 10 10 9 7 8 10 11 11 10 9 8 6 4 7 8 8 8 8 8 6 6 5 8 9 10 8 7
2 4 4 1 5 5 4 1 5 7 9 14 12 10 9 9 9 10 10 12 12 10 11 10 11 11 11 11 11 3 7 8 9 9 8 7 10 7 8 5 8 9 8 7
5 5 4 2 7 3 4 9 5 10 9 13 11 9 10 9 10 11 10 8 10 10 11 11 13 11 12 12 12 6 6 10 9 8 9 9 10 10 7 6 5 8 6 6
5 1 5 6 8 13 14 10 9 12 12 11 11 9 10 8 7 7 7 8 9 10 11 11 11 12 12 12 11 5 9 9 9 10 11 10 8 8 7 7 6 6 6 7
3 6 12 12 8 11 14 14 15 13 11 12 10 8 6 6 7 6 7 6 6 8 10 10 11 11 12 11 12 9 8 6 9 9 10 9 8 8 7 7 7 6 6 5
5 3 11 6 7 10 14 13 11 13 10 8 9 10 9 7 5 5 5 5 5 6 9 11 11 11 12 13 10 11 11 9 7 7 8 7 7 7 11 12 11 14 14 8
7 13 14 11 13 13 15 10 10 13 12 12 10 8 6 4 5 6 5 5 5 5 5 9 11 10 11 11 12 10 8 9 7 8 8 8 8 8 9 10 12 15 15 18
19 16 13 12 10 13 13 14 15 13 11 9 6 5 6 7 7 7 6 4 5 5 5 10 10 10 11 10 11 11 10 9 6 7 8 8 8 8 8 9 10 10 13 14
13 11 13 15 14 11 12 13 12 9 6 5 5 6 6 7 8 6 6 7 6 6 7 9 8 9 9 9 10 10 9 9 8 7 8 8 8 8 8 9 9 9 10 12
15 12 15 15 12 12 13 11 10 7 6 6 6 7 7 8 7 6 5 6 8 8 7 6 6 9 9 9 9 8 8 12 9 8 8 9 8 9 9 9 9 10 10 11
17 13 15 12 11 9 11 8 7 7 6 6 6 7 8 7 7 6 6 5 6 8 6 5 8 11 10 9 8 7 6 7 10 9 8 8 8 9 9 9 9 9 9 11
14 13 14 15 13 12 9 8 8 7 6 6 6 7 8 6 5 5 5 5 5 8 9 7 10 10 11 9 11 7 8 8 8 8 8 8 8 8 8 8 9 9 9 10
18 16 14 14 12 11 9 8 7 7 6 6 7 7 6 6 5 5 5 7 6 7 9 8 8 10 9 9 7 6 7 7 8 7 7 8 8 8 8 9 9 9 9 9
16 15 15 13 11 11 9 6 8 7 6 6 6 6 7 6 4 6 8 8 6 3 5 8 10 10 9 8 8 6 9 8 7 7 7 7 7 7 8 10 9 9 9 8
17 16 15 13 10 8 8 7 8 7 7 7 8 7 7 5 6 4 5 4 3 4 6 8 6 5 6 6 7 7 7 6 6 7 7 7 7 7 8 9 10 7 8 8
15 15 14 13 11 8 6 7 7 7 7 7 6 6 7 6 6 7 5 4 2 2 4 3 1 2 2 2 2 3 4 4 5 6 6 7 7 7 7 7 8 8 7 7
14 14 14 13 12 10 7 6 6 7 7 6 7 6 5 4 4 4 3 2 3 4 2 0 4 6 6 4 4 4 5 4 4 4 5 4 6 6 6 7 7 8 8 8
15 14 12 11 11 10 10 6 6 6 6 6 7 7 7 5 3 2 4 5 5 4 2 3 5 5 5 3 4 4 3 3 4 3 4 4 4 5 6 6 7 8 8 9
16 14 13 14 13 8 7 7 7 6 7 6 6 5 6 4 4 4 4 3 4 3 1 4 4 4 3 3 3 3 3 3 3 3 3 3 4 5 6 6 6 7 7 8
15 12 11 12 9 9 8 7 6 5 5 5 3 4 4 4 4 4 4 4 3 1 1 3 2 1 2 3 3 3 3 4 4 4 4 4 4 5 5 7 7 8 8 7
11 10 9 6 6 7 8 8 8 7 6 5 5 4 5 4 4 4 4 3 2 1 0 2 2 2 1 1 2 3 3 3 4 4 4 3 4 4 6 7 6 7 7 7
Wind_Direction
72 96 80 60 17 342 175 224 142 53 74 28 37 85 85 98 98 86 73 56 31 9 46 149 184 217 214 202 349 342 324 319 315 344 339 354 333 313 304 312 320 316 306 294
60 76 75 62 19 42 39 74 79 83 65 160 101 85 64 64 67 64 72 55 358 23 74 97 215 245 197 186 344 341 320 325 327 329 329 296 314 319 327 315 331 314 304 302
66 305 25 25 333 16 46 70 106 89 114 114 79 82 79 69 56 326 10 39 11 63 52 20 352 306 184 169 336 327 321 346 336 340 322 315 320 323 324 339 332 327 330 323
129 24 43 240 256 265 102 68 74 68 84 113 111 109 151 170 31 20 46 22 41 50 34 13 2 21 115 67 9 333 343 353 335 333 327 328 316 334 327 334 332 323 321 315
109 99 252 319 343 152 128 9 6 94 81 142 147 124 36 64 71 67 50 60 58 47 35 19 15 5 25 35 5 3 359 351 336 334 328 332 331 322 334 330 341 329 321 326
116 138 182 237 211 117 94 14 355 54 84 144 166 67 358 29 59 61 57 52 43 41 32 25 10 1 19 8 29 6 342 330 334 338 340 335 336 328 332 336 342 337 331 338
96 117 288 222 121 128 97 220 273 343 46 78 73 96 99 60 58 59 58 46 45 46 36 22 8 3 13 4 360 336 339 324 346 349 337 330 330 339 344 344 353 353 340 334
95 72 303 322 41 108 199 159 75 53 91 95 96 96 84 71 63 55 49 42 37 32 24 13 17 8 9 7 342 12 348 348 3 359 341 334 327 330 350 339 346 356 341 339
144 201 248 48 113 140 90 85 71 92 91 102 95 83 78 70 59 51 46 41 35 30 25 12 10 10 8 2 358 49 3 9 360 347 343 346 341 343 350 342 335 355 344 349
91 218 96 82 43 91 91 101 90 86 91 90 96 90 78 69 66 55 40 38 37 33 28 17 9 9 8 10 3 32 14 16 358 7 359 356 352 356 349 360 345 336 346 348
68 124 83 85 89 97 97 91 89 92 97 94 98 87 84 77 80 67 51 34 30 34 30 22 9 6 6 5 12 5 360 357 5 8 8 1 5 4 3 3 356 349 344 330
198 183 115 116 94 103 97 99 101 103 95 88 86 79 81 71 81 89 69 47 39 23 37 28 21 8 5 360 32 18 18 11 359 360 3 3 0 0 1 14 1 12 11 6
127 118 113 112 102 104 104 113 103 86 85 82 74 82 78 87 73 88 75 58 48 32 18 34 25 15 6 1 12 26 25 15 7 10 3 0 0 2 358 1 10 13 12 14
119 116 105 106 117 108 109 98 87 85 83 86 90 68 67 65 60 74 55 61 41 24 19 35 27 19 7 3 14 20 19 7 6 3 2 360 2 4 4 3 3 4 9 5
114 100 107 115 110 108 101 98 90 86 87 78 77 89 80 72 62 73 54 45 26 25 23 45 22 14 10 11 13 16 22 15 9 10 7 6 7 9 9 8 8 7 5 13
123 112 113 112 117 112 104 96 98 94 77 62 63 69 76 75 67 69 60 56 39 28 27 36 26 17 22 20 21 17 26 17 20 17 9 9 10 11 9 10 9 15 11 7
115 117 118 121 121 113 107 110 106 100 94 79 70 68 91 76 63 51 41 41 53 33 30 26 27 29 25 24 22 25 20 20 22 25 16 12 13 13 12 9 10 7 5 1
124 130 133 133 129 121 117 113 112 109 103 103 82 74 89 79 85 67 40 27 45 43 28 18 34 37 34 23 33 28 31 28 21 21 19 9 9 9 6 8 8 4 3 4
127 129 129 127 127 123 129 133 129 132 122 110 88 78 96 108 98 72 43 44 43 40 15 10 23 36 30 19 26 30 28 29 27 19 19 9 14 15 9 6 14 11 1 1
128 127 125 122 122 131 129 119 118 115 132 122 108 86 84 82 98 80 69 68 46 52 15 34 43 42 27 25 32 31 34 26 23 18 16 12 7 8 9 12 5 7 0 1
139 136 131 131 128 121 125 127 122 120 120 120 128 120 103 85 72 74 82 76 39 42 57 53 44 38 39 29 37 36 30 14 13 10 11 3 7 3 4 6 9 359 354 357
143 138 136 136 133 127 133 131 129 126 120 114 108 130 127 121 101 75 57 103 132 97 79 65 15 334 43 31 42 47 29 15 16 17 8 4 0 358 354 352 353 349 344 345
145 141 143 141 142 144 137 137 138 133 133 131 129 128 124 132 136 129 130 192 150 176 196 344 345 2 8 9 7 30 28 14 359 353 354 360 355 343 339 339 335 339 338 337
143 146 145 136 134 141 150 163 143 133 124 133 141 138 132 123 79 59 109 168 179 190 249 300 330 2 23 22 21 24 16 4 354 334 334 342 348 338 335 334 339 340 339 334
148 147 145 150 152 156 143 141 128 128 127 126 132 139 141 169 152 179 143 159 184 201 31 353 354 18 34 31 25 14 360 343 337 322 330 326 331 327 332 331 328 329 332 335
153 158 159 161 157 153 148 149 153 158 144 141 147 143 137 134 127 135 143 135 124 116 27 341 329 345 30 22 13 3 345 339 342 333 325 320 311 322 310 329 327 338 333 329
148 146 142 133 154 157 156 160 157 171 168 162 162 175 151 142 139 138 142 154 175 169 138 298 307 321 336 336 331 324 322 325 320 316 311 306 319 310 321 323 325 328 329 327